TimeMYT,TemperatureF,Dew PointF,Humidity,Sea Level PressureIn,VisibilityMPH,Wind Direction,Wind SpeedMPH,Gust SpeedMPH,PrecipitationIn,Events,Conditions,WindDirDegrees,DateUTC
12:00 AM,73.4,73.4,100,29.86,6.2,South,2.3,-,N/A,,Mostly Cloudy,190,2012-12-06 16:00:00
12:30 AM,73.4,73.4,100,29.86,6.2,South,2.3,-,N/A,,Mostly Cloudy,180,2012-12-06 16:30:00
1:00 AM,73.4,71.6,94,29.86,6.2,ENE,1.2,-,N/A,,Mostly Cloudy,70,2012-12-06 17:00:00
1:30 AM,73.4,73.4,100,29.86,6.2,WNW,1.2,-,N/A,,Mostly Cloudy,290,2012-12-06 17:30:00
2:00 AM,74,72,94,29.85,9,NNW,1.2,,,,Scattered Clouds,330,2012-12-06 18:00:00
2:00 AM,73.4,73.4,100,29.83,6.2,NNW,1.2,-,N/A,,Mostly Cloudy,330,2012-12-06 18:00:00
2:30 AM,73.4,73.4,100,29.83,6.2,West,2.3,-,N/A,,Mostly Cloudy,260,2012-12-06 18:30:00
3:00 AM,73.4,71.6,94,29.83,6.2,SSW,3.5,-,N/A,,Mostly Cloudy,210,2012-12-06 19:00:00
3:30 AM,73.4,73.4,100,29.83,6.2,South,1.2,-,N/A,,Mostly Cloudy,190,2012-12-06 19:30:00
4:00 AM,73.4,73.4,100,29.83,6.2,South,1.2,-,N/A,,Mostly Cloudy,190,2012-12-06 20:00:00
4:30 AM,73.4,71.6,94,29.83,6.2,Calm,Calm,-,N/A,,Mostly Cloudy,0,2012-12-06 20:30:00
5:00 AM,73,72,97,29.83,9,South,2.3,,,,Scattered Clouds,180,2012-12-06 21:00:00
5:00 AM,73.4,71.6,94,29.83,6.2,South,2.3,-,N/A,,Mostly Cloudy,180,2012-12-06 21:00:00
5:30 AM,73.4,73.4,100,29.83,6.2,Calm,Calm,-,N/A,,Mostly Cloudy,0,2012-12-06 21:30:00
6:00 AM,73.4,73.4,100,29.83,6.2,East,2.3,-,N/A,,Mostly Cloudy,80,2012-12-06 22:00:00
6:30 AM,73.4,73.4,100,29.86,6.2,East,1.2,-,N/A,,Mostly Cloudy,90,2012-12-06 22:30:00
7:00 AM,73.4,71.6,94,29.86,6.2,SSE,2.3,-,N/A,,Mostly Cloudy,160,2012-12-06 23:00:00
7:30 AM,75.2,73.4,94,29.86,6.2,SSW,1.2,-,N/A,,Mostly Cloudy,210,2012-12-06 23:30:00
8:00 AM,76,74,91,29.88,16,SE,3.5,,,,Scattered Clouds,140,2012-12-07 00:00:00
8:00 AM,75.2,73.4,94,29.86,6.2,SE,3.5,-,N/A,,Mostly Cloudy,140,2012-12-07 00:00:00
8:30 AM,78.8,75.2,89,29.89,6.2,South,1.2,-,N/A,,Mostly Cloudy,180,2012-12-07 00:30:00
9:00 AM,80.6,77.0,89,29.89,6.2,South,3.5,-,N/A,,Mostly Cloudy,170,2012-12-07 01:00:00
9:30 AM,82.4,77.0,84,29.89,6.2,SE,3.5,-,N/A,,Mostly Cloudy,140,2012-12-07 01:30:00
10:00 AM,86.0,77.0,74,29.89,6.2,ESE,3.5,-,N/A,,Mostly Cloudy,110,2012-12-07 02:00:00
10:30 AM,86.0,75.2,70,29.89,6.2,ENE,2.3,-,N/A,,Mostly Cloudy,60,2012-12-07 02:30:00
11:00 AM,87,77,64,29.88,16,ENE,4.6,,,,Mostly Cloudy,70,2012-12-07 03:00:00
11:00 AM,87.8,77.0,70,29.86,6.2,ENE,4.6,-,N/A,,Mostly Cloudy,70,2012-12-07 03:00:00
11:30 AM,87.8,77.0,70,29.86,6.2,South,2.3,-,N/A,,Mostly Cloudy,170,2012-12-07 03:30:00
12:00 PM,89.6,77.0,66,29.83,6.2,South,4.6,-,N/A,,Mostly Cloudy,190,2012-12-07 04:00:00
12:30 PM,89.6,75.2,62,29.83,6.2,South,4.6,-,N/A,,Mostly Cloudy,180,2012-12-07 04:30:00
1:00 PM,91.4,75.2,59,29.80,6.2,SSE,5.8,-,N/A,,Scattered Clouds,150,2012-12-07 05:00:00
1:30 PM,91.4,75.2,59,29.80,6.2,SSE,4.6,-,N/A,,Scattered Clouds,150,2012-12-07 05:30:00
2:00 PM,88,76,60,29.78,19,North,5.8,,,,Mostly Cloudy,10,2012-12-07 06:00:00
2:00 PM,87.8,75.2,66,29.77,6.2,North,5.8,-,N/A,,Scattered Clouds,10,2012-12-07 06:00:00
2:30 PM,87.8,77.0,70,29.74,6.2,North,5.8,-,N/A,,Scattered Clouds,360,2012-12-07 06:30:00
3:00 PM,89.6,78.8,70,29.74,6.2,North,6.9,-,N/A,,Mostly Cloudy,360,2012-12-07 07:00:00
3:30 PM,87.8,77.0,70,29.74,6.2,NNW,9.2,-,N/A,Thunderstorm,Thunderstorm,340,2012-12-07 07:30:00
4:00 PM,84.2,75.2,74,29.74,6.2,North,6.9,-,N/A,Thunderstorm,Thunderstorm,350,2012-12-07 08:00:00
4:30 PM,82.4,75.2,79,29.74,6.2,West,4.6,-,N/A,Thunderstorm,Thunderstorm,280,2012-12-07 08:30:00
5:00 PM,80,76,82,29.76,4,South,5.8,,,Rain-Thunderstorm,Thunderstorms and Rain,170,2012-12-07 09:00:00
5:00 PM,80.6,75.2,84,29.74,3.7,South,5.8,-,N/A,Rain-Thunderstorm,Light Thunderstorms and Rain,170,2012-12-07 09:00:00
5:30 PM,77.0,73.4,89,29.77,3.1,South,10.4,-,N/A,Rain-Thunderstorm,Light Thunderstorms and Rain,180,2012-12-07 09:30:00
6:00 PM,77.0,75.2,94,29.77,3.7,North,3.5,-,N/A,Rain-Thunderstorm,Light Thunderstorms and Rain,360,2012-12-07 10:00:00
6:30 PM,77.0,75.2,94,29.80,6.2,WNW,3.5,-,N/A,Rain,Light Rain,290,2012-12-07 10:30:00
7:00 PM,77.0,75.2,94,29.80,4.3,SW,6.9,-,N/A,Rain-Thunderstorm,Light Thunderstorms and Rain,220,2012-12-07 11:00:00
7:30 PM,77.0,75.2,94,29.80,5.0,SW,3.5,-,N/A,Rain-Thunderstorm,Light Thunderstorms and Rain,230,2012-12-07 11:30:00
8:00 PM,78,75,88,29.83,6,WSW,5.8,,,Thunderstorm,Light Thunderstorm,250,2012-12-07 12:00:00
8:00 PM,77.0,75.2,94,29.83,6.2,WSW,5.8,-,N/A,,Mostly Cloudy,250,2012-12-07 12:00:00
8:30 PM,77.0,75.2,94,29.86,6.2,WSW,6.9,-,N/A,,Mostly Cloudy,240,2012-12-07 12:30:00
9:00 PM,77.0,75.2,94,29.86,6.2,West,3.5,-,N/A,,Mostly Cloudy,270,2012-12-07 13:00:00
9:30 PM,75.2,73.4,94,29.86,6.2,West,4.6,-,N/A,,Mostly Cloudy,260,2012-12-07 13:30:00
10:00 PM,77.0,73.4,89,29.86,6.2,WSW,3.5,-,N/A,,Mostly Cloudy,250,2012-12-07 14:00:00
10:30 PM,75.2,75.2,100,29.86,6.2,SW,4.6,-,N/A,,Mostly Cloudy,230,2012-12-07 14:30:00
11:00 PM,76,74,92,29.86,7,SW,3.5,,,,Partly Cloudy,220,2012-12-07 15:00:00
11:00 PM,75.2,73.4,94,29.86,6.2,SW,3.5,-,N/A,,Mostly Cloudy,220,2012-12-07 15:00:00
11:30 PM,75.2,73.4,94,29.86,6.2,South,3.5,-,N/A,,Mostly Cloudy,190,2012-12-07 15:30:00